Location: *
(48.8489°N, 2.3218°E)
Time: 02:21:28
(UTC+00:00)

ERS-1 Rocket - Pass Details

Date: 23 August 2019
Orbit: 753 x 758 km, 98.5° (Epoch: 16 September)

Event Time Altitude Azimuth Distance (km) Brightness Sun altitude
Exits shadow 20:58:42 35° 146° (SSE) 1,208 3.5 -18.6°
Maximum altitude 21:00:49 71° 72° (ENE) 801 2.9 -18.9°
Drops below altitude 10° 21:05:50 10° 349° (N) 2,290 6.3 -19.4°
Sets 21:08:08 0° 348° (NNW) 3,219 7.2 -19.7°
